Home > Time Zones > World Clock > Weather > U.S.A. > Waco > Past weeks

Flag for U.S.A. Weather past 2 weeks in Waco, Texas, U.S.A.

Now
87 °F

Clear.


Feels Like: 91 °F
Forecast: 76 / 97 °F
Wind: 10 mph from Southeast

Location: Waco Regional Airport

Current Time: Jul 25, 2014 at 11:06:09 PM

Latest Report: Jul 25, 2014 at 9:51 PM


Visibility: 10 mi

Pressure: 29.93 "Hg

Humidity: 55%

Dew point: 69 °F

Location of WacoLocation

Historic Weather in Waco — Graph

°F

Waco temperature yesterday

Maximum temperature yesterday: 95 °F (at 4:51 PM)
Minimum temperature yesterday: 73 °F (at 6:51 AM)
Average temperature yesterday: 83 °F

Past Weeks' High & Low Weather Summary

 TemperatureHumidityPressure
High99 °F (Jul 14, 3:51 PM)100% (Jul 18, 2:02 AM)30.16 "Hg (Jul 18, 2:02 AM)
Low65 °F (Jul 19, 6:51 AM)30% (Jul 12, 3:51 PM)29.81 "Hg (Jul 17, 5:51 PM)
Average82 °F66%29.98 "Hg
* Reported Jul 10 9:51 PM — Jul 25 9:51 PM, Waco, Weather by CustomWeather, © 2014

Note: Actual official high and low records may vary slightly from our data, if they occured in-between our weather recording intervals... More about our weather records

Advertising

Waco weather history for previous 24 hours

 ConditionsComfort  
Time TempWeatherWind HumidityBarometerVisibility
9:51 PM
Jul 25
87 °FClear.10 mph55%29.93 "Hg10 mi
8:51 PM89 °FSunny.12 mph50%29.91 "Hg10 mi
7:51 PM92 °FPassing clouds.10 mph44%29.90 "Hg10 mi
6:51 PM95 °FSunny.9 mph39%29.90 "Hg10 mi
5:51 PM96 °FSunny.8 mph37%29.90 "Hg10 mi
4:51 PM97 °FSunny.8 mph36%29.91 "Hg10 mi
3:51 PM97 °FPassing clouds.10 mph36%29.93 "Hg10 mi
2:51 PM96 °FSunny.13 mph40%29.94 "Hg10 mi
1:51 PM95 °FSunny.12 mph43%29.96 "Hg10 mi
12:51 PM94 °FScattered clouds.10 mph46%29.97 "Hg10 mi
11:51 AM93 °FSunny.8 mph46%29.99 "Hg10 mi
10:51 AM90 °FSunny.10 mph50%30.01 "Hg10 mi
9:51 AM87 °FSunny.8 mph57%30.01 "Hg10 mi
8:51 AM82 °FSunny.7 mph70%30.01 "Hg10 mi
7:51 AM77 °FSunny.8 mph82%29.99 "Hg10 mi
6:51 AM71 °FClear.No wind93%29.99 "Hg10 mi
5:51 AM72 °FClear.5 mph91%29.98 "Hg10 mi
4:51 AM73 °FClear.5 mph84%29.98 "Hg10 mi
3:51 AM74 °FClear.No wind79%29.97 "Hg10 mi
2:51 AM77 °FClear.5 mph74%29.97 "Hg10 mi
1:51 AM78 °FClear.5 mph71%29.98 "Hg10 mi
12:51 AM79 °FClear.6 mph72%29.98 "Hg10 mi
11:51 PM
Jul 24
78 °FClear.7 mph74%29.98 "Hg10 mi
Weather by CustomWeather, © 2014

See weather overviewHow to use our weather pages